Flag for Switzerland Weather past 2 weeks in Spiez, Bern, Switzerland

Now
68 °F

Mild.


Feels Like: 68 °F
Forecast: 55 / 73 °F
Wind: 5 mph from North

Location: Interlaken

Current Time: Aug 30, 2014 at 12:52:27 PM

Latest Report: Aug 30, 2014 at 12:00 PM


Visibility: N/A

Pressure: 30.08 "Hg

Humidity: 74%

Dew point: 60 °F

Location of SpiezLocation

Historic Weather in Spiez — Graph

°F

Spiez temperature yesterday

Maximum temperature yesterday: 72 °F (at 4:00 PM)
Minimum temperature yesterday: 58 °F (at 4:00 AM)
Average temperature yesterday: 64 °F

Past Weeks' High & Low Weather Summary

 TemperatureHumidityPressure
High75 °F (Aug 18, 5:00 PM)99% (Aug 27, 12:00 AM)30.23 "Hg (Aug 27, 12:00 AM)
Low46 °F (Aug 17, 7:00 AM)40% (Aug 18, 8:00 PM)29.77 "Hg (Aug 18, 6:00 PM)
Average59 °F78%30.02 "Hg
* Reported Aug 15 11:00 AM — Aug 30 11:00 AM, Spiez, Weather by CustomWeather, © 2014

Note: Actual official high and low records may vary slightly from our data, if they occured in-between our weather recording intervals... More about our weather records

Advertising

Spiez weather history for previous 24 hours

 ConditionsComfort  
Time TempWeatherWind HumidityBarometerVisibility
11:00 AM
Aug 30
66 °FMild.5 mph87%30.09 "HgN/A
10:00 AM63 °FMild.1 mph93%30.11 "HgN/A
9:00 AM62 °FCool.No wind96%30.11 "HgN/A
8:00 AM61 °FCool.1 mph96%30.10 "HgN/A
7:00 AM62 °FCool.1 mph98%30.10 "HgN/A
6:00 AM62 °FCool.2 mph97%30.09 "HgN/A
5:00 AM61 °FCool.No wind98%30.11 "HgN/A
4:00 AM61 °FCool.1 mph96%30.11 "HgN/A
3:00 AM61 °FCool.2 mph96%30.11 "HgN/A
2:00 AM62 °FCool.3 mph96%30.11 "HgN/A
1:00 AM62 °FCool.2 mph94%30.11 "HgN/A
12:00 AM62 °FMild.5 mph93%30.10 "HgN/A
11:00 PM
Aug 29
64 °FMild.9 mph89%30.08 "HgN/A
9:00 PM65 °FMild.No wind96%30.06 "HgN/A
8:00 PM65 °FMild.1 mph94%30.04 "HgN/A
7:00 PM66 °FMild.1 mph92%30.03 "HgN/A
6:00 PM68 °FMild.3 mph87%30.03 "HgN/A
5:00 PM67 °FMild.1 mph86%30.02 "HgN/A
4:00 PM72 °FMild.3 mph67%29.99 "HgN/A
3:00 PM71 °FMild.5 mph65%30.00 "HgN/A
2:00 PM72 °FMild.2 mph63%30.00 "HgN/A
1:00 PM68 °FMild.3 mph73%30.03 "HgN/A
12:00 PM69 °FMild.2 mph74%30.03 "HgN/A
Weather by CustomWeather, © 2014

See weather overviewHow to use our weather pages